ACA748 CYUL-KBOS

Flight info

Callsign ACA748
Flight time 0h 53m
Altitude 35000
Route OVAXO DCT VIRKA DCT TEMPR DCT ENE OOSHN5
Aircraft A321/M-SDE3FGHIRWY/LB1

Departure

Time 2026-05-06 09:42
Airport Montreal / Pierre Elliott Trudeau International Airport (CYUL)

Arrival

Time 2026-05-06 10:36
Airport Boston Logan International Airport (KBOS)
Time Latitude Longitude Altitude Speed Heading
2026-05-06 09:14 45.45700 -73.75402 104 ft 0 kts 118°
2026-05-06 09:28 45.45705 -73.75415 105 ft 4 kts 116°
2026-05-06 09:28 45.45712 -73.75449 105 ft 3 kts 81°
2026-05-06 09:28 45.45706 -73.75477 102 ft 4 kts 42°
2026-05-06 09:28 45.45687 -73.75495 104 ft 3 kts 28°
2026-05-06 09:29 45.45663 -73.75513 104 ft 4 kts 28°
2026-05-06 09:29 45.45654 -73.75520 103 ft 0 kts 28°
2026-05-06 09:30 45.45655 -73.75519 103 ft 2 kts 28°
2026-05-06 09:31 45.45702 -73.75542 105 ft 14 kts 298°
2026-05-06 09:31 45.45716 -73.75684 105 ft 14 kts 275°
2026-05-06 09:31 45.45744 -73.75814 105 ft 14 kts 306°
2026-05-06 09:31 45.45806 -73.75918 105 ft 14 kts 322°
2026-05-06 09:32 45.45894 -73.75953 105 ft 13 kts 352°
2026-05-06 09:32 45.45980 -73.75958 105 ft 12 kts 359°
2026-05-06 09:32 45.46062 -73.75960 104 ft 12 kts 358°
2026-05-06 09:32 45.46125 -73.75902 102 ft 12 kts 79°
2026-05-06 09:33 45.46128 -73.75789 102 ft 11 kts 88°
2026-05-06 09:33 45.46132 -73.75687 102 ft 10 kts 87°
2026-05-06 09:33 45.46136 -73.75580 102 ft 15 kts 87°
2026-05-06 09:33 45.46140 -73.75432 102 ft 15 kts 88°
2026-05-06 09:34 45.46143 -73.75289 101 ft 14 kts 88°
2026-05-06 09:34 45.46148 -73.75157 102 ft 12 kts 86°
2026-05-06 09:34 45.46151 -73.75049 104 ft 10 kts 89°
2026-05-06 09:34 45.46154 -73.74923 104 ft 17 kts 87°
2026-05-06 09:35 45.46162 -73.74726 104 ft 21 kts 87°
2026-05-06 09:35 45.46136 -73.74533 104 ft 20 kts 111°
2026-05-06 09:35 45.46126 -73.74408 103 ft 19 kts 90°
2026-05-06 09:35 45.46134 -73.74224 103 ft 18 kts 86°
2026-05-06 09:36 45.46148 -73.74056 105 ft 16 kts 64°
2026-05-06 09:36 45.46223 -73.73948 105 ft 15 kts 42°
2026-05-06 09:36 45.46295 -73.73853 106 ft 13 kts 43°
2026-05-06 09:36 45.46362 -73.73763 108 ft 13 kts 42°
2026-05-06 09:37 45.46429 -73.73677 108 ft 15 kts 42°
2026-05-06 09:37 45.46517 -73.73565 110 ft 19 kts 42°
2026-05-06 09:37 45.46616 -73.73433 111 ft 19 kts 42°
2026-05-06 09:37 45.46707 -73.73313 112 ft 17 kts 43°
2026-05-06 09:38 45.46790 -73.73204 114 ft 15 kts 43°
2026-05-06 09:38 45.46864 -73.73108 113 ft 14 kts 43°
2026-05-06 09:38 45.46928 -73.73024 115 ft 12 kts 42°
2026-05-06 09:38 45.46982 -73.72953 114 ft 10 kts 43°
2026-05-06 09:39 45.47067 -73.72840 116 ft 21 kts 43°
2026-05-06 09:39 45.47174 -73.72702 115 ft 20 kts 43°
2026-05-06 09:39 45.47274 -73.72570 116 ft 19 kts 43°
2026-05-06 09:39 45.47369 -73.72446 118 ft 18 kts 42°
2026-05-06 09:40 45.47477 -73.72303 119 ft 22 kts 43°
2026-05-06 09:40 45.47587 -73.72159 118 ft 21 kts 42°
2026-05-06 09:40 45.47787 -73.71899 120 ft 17 kts 42°
2026-05-06 09:41 45.47791 -73.71770 121 ft 14 kts 123°
2026-05-06 09:41 45.47734 -73.71662 121 ft 13 kts 132°
2026-05-06 09:41 45.47665 -73.71655 122 ft 10 kts 218°
2026-05-06 09:41 45.47592 -73.71748 125 ft 29 kts 223°
2026-05-06 09:42 45.47249 -73.72199 116 ft 101 kts 222°
2026-05-06 09:42 45.46592 -73.73060 126 ft 152 kts 224°
2026-05-06 09:42 45.45815 -73.74047 749 ft 150 kts 223°
2026-05-06 09:42 45.45055 -73.75071 1475 ft 149 kts 227°
2026-05-06 09:43 45.44348 -73.76124 2017 ft 156 kts 227°
2026-05-06 09:43 45.43517 -73.77260 2352 ft 175 kts 226°
2026-05-06 09:43 45.42557 -73.78436 2728 ft 191 kts 214°
2026-05-06 09:43 45.41202 -73.78882 3005 ft 218 kts 177°
2026-05-06 09:44 45.39753 -73.77859 3118 ft 256 kts 136°
2026-05-06 09:44 45.38744 -73.75618 3583 ft 276 kts 115°
2026-05-06 09:44 45.38063 -73.73032 4459 ft 282 kts 108°
2026-05-06 09:44 45.37505 -73.70347 5334 ft 285 kts 108°
2026-05-06 09:45 45.36969 -73.67598 6156 ft 291 kts 109°
2026-05-06 09:45 45.36403 -73.64817 6918 ft 295 kts 113°
2026-05-06 09:45 45.35740 -73.62048 7689 ft 297 kts 117°
2026-05-06 09:45 45.35014 -73.59276 8473 ft 301 kts 118°
2026-05-06 09:46 45.34261 -73.56488 9275 ft 304 kts 120°
2026-05-06 09:46 45.33494 -73.53676 10002 ft 307 kts 121°
2026-05-06 09:46 45.32703 -73.50784 10367 ft 325 kts 121°
2026-05-06 09:46 45.31852 -73.47681 10531 ft 347 kts 120°
2026-05-06 09:47 45.30977 -73.44432 11017 ft 356 kts 119°
2026-05-06 09:47 45.30095 -73.41111 11623 ft 362 kts 119°
2026-05-06 09:47 45.29204 -73.37738 12247 ft 367 kts 119°
2026-05-06 09:47 45.28304 -73.34319 12882 ft 372 kts 119°
2026-05-06 09:48 45.27359 -73.30877 13511 ft 373 kts 124°
2026-05-06 09:48 45.26039 -73.27762 14053 ft 365 kts 137°
2026-05-06 09:48 45.24314 -73.25187 14631 ft 355 kts 150°
2026-05-06 09:48 45.22302 -73.23238 15224 ft 346 kts 162°
2026-05-06 09:49 45.20119 -73.21942 15785 ft 337 kts 173°
2026-05-06 09:49 45.17847 -73.21260 16355 ft 333 kts 180°
2026-05-06 09:49 45.15547 -73.20757 16933 ft 336 kts 180°
2026-05-06 09:49 45.13226 -73.20247 17501 ft 339 kts 180°
2026-05-06 09:50 45.10879 -73.19725 18013 ft 343 kts 179°
2026-05-06 09:50 45.08536 -73.19201 18474 ft 348 kts 179°
2026-05-06 09:50 45.06136 -73.18659 18936 ft 351 kts 178°
2026-05-06 09:50 45.03737 -73.17694 19389 ft 367 kts 166°
2026-05-06 09:51 45.01454 -73.15940 19830 ft 383 kts 154°
2026-05-06 09:51 44.99418 -73.13385 20254 ft 401 kts 140°
2026-05-06 09:51 44.97636 -73.10302 20694 ft 407 kts 137°
2026-05-06 09:51 44.95853 -73.07175 21121 ft 410 kts 137°
2026-05-06 09:52 44.94050 -73.04034 21534 ft 413 kts 138°
2026-05-06 09:52 44.92227 -73.00882 21920 ft 416 kts 138°
2026-05-06 09:52 44.90387 -72.97712 22285 ft 418 kts 137°
2026-05-06 09:52 44.88540 -72.94530 22682 ft 421 kts 137°
2026-05-06 09:53 44.86682 -72.91328 23058 ft 424 kts 137°
2026-05-06 09:53 44.84807 -72.88100 23432 ft 427 kts 137°
2026-05-06 09:53 44.82916 -72.84850 23753 ft 430 kts 137°
2026-05-06 09:53 44.81014 -72.81584 24067 ft 433 kts 137°
2026-05-06 09:54 44.79099 -72.78293 24396 ft 436 kts 137°
2026-05-06 09:54 44.77168 -72.74986 24714 ft 438 kts 137°
2026-05-06 09:54 44.75224 -72.71664 25055 ft 441 kts 137°
2026-05-06 09:54 44.73268 -72.68322 25351 ft 444 kts 137°
2026-05-06 09:55 44.71302 -72.64958 25672 ft 447 kts 137°
2026-05-06 09:55 44.69324 -72.61576 25984 ft 449 kts 137°
2026-05-06 09:55 44.67333 -72.58179 26305 ft 452 kts 137°
2026-05-06 09:55 44.65328 -72.54767 26633 ft 455 kts 137°
2026-05-06 09:56 44.63308 -72.51334 26950 ft 457 kts 137°
2026-05-06 09:56 44.61274 -72.47883 27266 ft 460 kts 137°
2026-05-06 09:56 44.59228 -72.44410 27567 ft 463 kts 137°
2026-05-06 09:56 44.57174 -72.40925 27840 ft 465 kts 137°
2026-05-06 09:57 44.55104 -72.37420 28138 ft 468 kts 137°
2026-05-06 09:57 44.53021 -72.33899 28441 ft 470 kts 137°
2026-05-06 09:57 44.50930 -72.30364 28735 ft 473 kts 137°
2026-05-06 09:57 44.48850 -72.26852 29010 ft 476 kts 137°
2026-05-06 09:58 44.46730 -72.23279 29293 ft 478 kts 138°
2026-05-06 09:58 44.44594 -72.19695 29566 ft 481 kts 138°
2026-05-06 09:58 44.42446 -72.16096 29864 ft 483 kts 138°
2026-05-06 09:58 44.40288 -72.12479 30056 ft 485 kts 137°
2026-05-06 09:59 44.38114 -72.08838 30248 ft 489 kts 137°
2026-05-06 09:59 44.35931 -72.05185 30467 ft 491 kts 137°
2026-05-06 09:59 44.33737 -72.01515 30665 ft 493 kts 137°
2026-05-06 09:59 44.31538 -71.97841 30929 ft 493 kts 137°
2026-05-06 10:00 44.29334 -71.94163 31170 ft 494 kts 137°
2026-05-06 10:00 44.27129 -71.90485 31432 ft 494 kts 137°
2026-05-06 10:00 44.24925 -71.86811 31753 ft 493 kts 137°
2026-05-06 10:00 44.22727 -71.83157 32060 ft 492 kts 136°
2026-05-06 10:01 44.20531 -71.79513 32386 ft 491 kts 136°
2026-05-06 10:01 44.18333 -71.75878 32702 ft 490 kts 136°
2026-05-06 10:01 44.16138 -71.72253 33025 ft 489 kts 136°
2026-05-06 10:01 44.13946 -71.68633 33359 ft 488 kts 136°
2026-05-06 10:02 44.11762 -71.65026 33660 ft 488 kts 136°
2026-05-06 10:02 44.09575 -71.61420 34003 ft 486 kts 136°
2026-05-06 10:02 44.07393 -71.57830 34227 ft 486 kts 137°
2026-05-06 10:02 44.05206 -71.54239 34435 ft 486 kts 136°
2026-05-06 10:03 44.03022 -71.50658 34677 ft 486 kts 136°
2026-05-06 10:03 44.00830 -71.47070 34828 ft 487 kts 136°
2026-05-06 10:03 43.96507 -71.39982 34872 ft 477 kts 136°
2026-05-06 10:04 43.92219 -71.32977 34867 ft 476 kts 137°
2026-05-06 10:04 43.87918 -71.26013 34873 ft 475 kts 137°
2026-05-06 10:05 43.83437 -71.19328 34872 ft 472 kts 141°
2026-05-06 10:05 43.78821 -71.12874 34860 ft 471 kts 141°
2026-05-06 10:06 43.74214 -71.06406 34867 ft 472 kts 141°
2026-05-06 10:06 43.69651 -70.99875 34863 ft 473 kts 140°
2026-05-06 10:07 43.65098 -70.93326 34867 ft 473 kts 140°
2026-05-06 10:07 43.60522 -70.86789 34037 ft 479 kts 141°
2026-05-06 10:08 43.58195 -70.83487 33327 ft 478 kts 141°
2026-05-06 10:08 43.55892 -70.80212 32746 ft 474 kts 141°
2026-05-06 10:08 43.53607 -70.76965 32141 ft 469 kts 141°
2026-05-06 10:08 43.51346 -70.73753 31556 ft 466 kts 140°
2026-05-06 10:09 43.49096 -70.70561 30971 ft 463 kts 140°
2026-05-06 10:09 43.46858 -70.67395 30388 ft 460 kts 140°
2026-05-06 10:09 43.44633 -70.64252 29791 ft 457 kts 140°
2026-05-06 10:09 43.42327 -70.61319 29209 ft 445 kts 148°
2026-05-06 10:10 43.39828 -70.58929 28734 ft 432 kts 155°
2026-05-06 10:10 43.37312 -70.56729 28245 ft 426 kts 154°
2026-05-06 10:10 43.34839 -70.54548 27768 ft 419 kts 154°
2026-05-06 10:10 43.32406 -70.52394 27287 ft 413 kts 154°
2026-05-06 10:11 43.30013 -70.50274 26837 ft 405 kts 154°
2026-05-06 10:11 43.27666 -70.48202 26407 ft 398 kts 154°
2026-05-06 10:11 43.25387 -70.46200 26004 ft 391 kts 154°
2026-05-06 10:11 43.23113 -70.44214 25581 ft 385 kts 154°
2026-05-06 10:12 43.20871 -70.42259 25176 ft 379 kts 154°
2026-05-06 10:12 43.18662 -70.40330 24785 ft 375 kts 154°
2026-05-06 10:12 43.16472 -70.38416 24397 ft 372 kts 154°
2026-05-06 10:12 43.14294 -70.36515 24005 ft 370 kts 154°
2026-05-06 10:13 43.12129 -70.34632 23604 ft 367 kts 154°
2026-05-06 10:13 43.09983 -70.32764 23178 ft 364 kts 154°
2026-05-06 10:13 43.07857 -70.30911 22777 ft 361 kts 154°
2026-05-06 10:13 43.05742 -70.29067 22381 ft 359 kts 154°
2026-05-06 10:14 43.03648 -70.27241 21988 ft 356 kts 154°
2026-05-06 10:14 43.01567 -70.25431 21598 ft 353 kts 155°
2026-05-06 10:14 42.99503 -70.23640 21195 ft 350 kts 155°
2026-05-06 10:14 42.97457 -70.21865 20808 ft 347 kts 155°
2026-05-06 10:15 42.95428 -70.20103 20390 ft 344 kts 155°
2026-05-06 10:15 42.93413 -70.18357 20015 ft 342 kts 155°
2026-05-06 10:15 42.91408 -70.16621 19623 ft 340 kts 155°
2026-05-06 10:15 42.89419 -70.14903 19230 ft 337 kts 155°
2026-05-06 10:16 42.87447 -70.13199 18841 ft 334 kts 155°
2026-05-06 10:16 42.85492 -70.11513 18443 ft 331 kts 155°
2026-05-06 10:16 42.83550 -70.09840 18052 ft 329 kts 155°
2026-05-06 10:16 42.81622 -70.08180 17662 ft 327 kts 155°
2026-05-06 10:17 42.79694 -70.06588 17287 ft 320 kts 161°
2026-05-06 10:17 42.77664 -70.05508 16924 ft 308 kts 172°
2026-05-06 10:17 42.75592 -70.05013 16578 ft 298 kts 182°
2026-05-06 10:17 42.73550 -70.05058 16288 ft 290 kts 192°
2026-05-06 10:18 42.71601 -70.05600 15953 ft 283 kts 202°
2026-05-06 10:18 42.69759 -70.06495 15615 ft 280 kts 204°
2026-05-06 10:18 42.67939 -70.07405 15259 ft 277 kts 206°
2026-05-06 10:18 42.66272 -70.08647 14896 ft 271 kts 218°
2026-05-06 10:19 42.64889 -70.10364 14543 ft 269 kts 229°
2026-05-06 10:19 42.63836 -70.12447 14203 ft 268 kts 240°
2026-05-06 10:19 42.63042 -70.14740 13863 ft 268 kts 242°
2026-05-06 10:19 42.62258 -70.17024 13516 ft 266 kts 242°
2026-05-06 10:20 42.61476 -70.19291 13437 ft 265 kts 242°
2026-05-06 10:20 42.60694 -70.21559 13329 ft 265 kts 243°
2026-05-06 10:20 42.60147 -70.23954 13175 ft 269 kts 256°
2026-05-06 10:20 42.59992 -70.26488 12796 ft 269 kts 261°
2026-05-06 10:21 42.59884 -70.29014 12463 ft 267 kts 261°
2026-05-06 10:21 42.59772 -70.31523 12129 ft 265 kts 261°
2026-05-06 10:21 42.59657 -70.34015 11789 ft 264 kts 261°
2026-05-06 10:21 42.59542 -70.36493 11469 ft 262 kts 261°
2026-05-06 10:22 42.59426 -70.38951 11153 ft 260 kts 261°
2026-05-06 10:22 42.59348 -70.40571 10941 ft 259 kts 261°
2026-05-06 10:22 42.59231 -70.43007 10622 ft 258 kts 261°
2026-05-06 10:22 42.59116 -70.45426 10304 ft 256 kts 261°
2026-05-06 10:23 42.58966 -70.48610 9874 ft 254 kts 261°
2026-05-06 10:23 42.58856 -70.50994 9542 ft 253 kts 261°
2026-05-06 10:23 42.58745 -70.53375 9223 ft 252 kts 261°
2026-05-06 10:23 42.58669 -70.54981 9023 ft 253 kts 260°
2026-05-06 10:24 42.58421 -70.57315 8706 ft 248 kts 249°
2026-05-06 10:24 42.57925 -70.59553 8389 ft 247 kts 249°
2026-05-06 10:24 42.57437 -70.61787 8074 ft 247 kts 249°
2026-05-06 10:24 42.56951 -70.64020 7753 ft 246 kts 249°
2026-05-06 10:25 42.56467 -70.66246 7446 ft 246 kts 249°
2026-05-06 10:25 42.56211 -70.68549 7143 ft 252 kts 266°
2026-05-06 10:25 42.56562 -70.70919 6715 ft 265 kts 285°
2026-05-06 10:25 42.57579 -70.73095 6141 ft 280 kts 302°
2026-05-06 10:26 42.58784 -70.75093 5989 ft 266 kts 302°
2026-05-06 10:26 42.60161 -70.76675 5990 ft 260 kts 327°
2026-05-06 10:26 42.61925 -70.77238 5997 ft 268 kts 357°
2026-05-06 10:26 42.63765 -70.76822 5965 ft 266 kts
2026-05-06 10:27 42.65492 -70.76988 5858 ft 234 kts 327°
2026-05-06 10:27 42.66638 -70.78292 5724 ft 207 kts 296°
2026-05-06 10:27 42.67331 -70.79942 5599 ft 197 kts 284°
2026-05-06 10:27 42.67696 -70.81682 5476 ft 187 kts 267°
2026-05-06 10:28 42.67583 -70.83388 5352 ft 179 kts 249°
2026-05-06 10:28 42.67038 -70.84877 5239 ft 180 kts 231°
2026-05-06 10:28 42.66108 -70.86016 5113 ft 183 kts 213°
2026-05-06 10:28 42.64920 -70.86684 4991 ft 186 kts 205°
2026-05-06 10:29 42.63688 -70.87283 4863 ft 186 kts 205°
2026-05-06 10:29 42.62474 -70.87875 4746 ft 185 kts 204°
2026-05-06 10:29 42.61280 -70.88458 4639 ft 185 kts 205°
2026-05-06 10:29 42.60078 -70.89044 4549 ft 183 kts 205°
2026-05-06 10:30 42.58877 -70.89630 4385 ft 182 kts 205°
2026-05-06 10:30 42.57692 -70.90207 4171 ft 179 kts 205°
2026-05-06 10:30 42.56523 -70.90777 3951 ft 178 kts 205°
2026-05-06 10:30 42.55365 -70.91342 3722 ft 176 kts 205°
2026-05-06 10:31 42.54209 -70.91905 3491 ft 178 kts 206°
2026-05-06 10:31 42.53060 -70.92463 3260 ft 170 kts 206°
2026-05-06 10:31 42.51987 -70.92983 3045 ft 158 kts 206°
2026-05-06 10:31 42.50973 -70.93477 2843 ft 152 kts 207°
2026-05-06 10:32 42.49989 -70.93956 2648 ft 149 kts 207°
2026-05-06 10:32 42.49024 -70.94426 2454 ft 146 kts 207°
2026-05-06 10:32 42.48073 -70.94889 2263 ft 145 kts 207°
2026-05-06 10:32 42.47142 -70.95341 2071 ft 138 kts 207°
2026-05-06 10:33 42.46271 -70.95763 1907 ft 130 kts 206°
2026-05-06 10:33 42.45430 -70.96172 1736 ft 128 kts 207°
2026-05-06 10:33 42.44593 -70.96579 1572 ft 127 kts 206°
2026-05-06 10:33 42.43746 -70.96992 1389 ft 132 kts 205°
2026-05-06 10:34 42.42897 -70.97403 1203 ft 124 kts 204°
2026-05-06 10:34 42.42102 -70.97788 1031 ft 120 kts 204°
2026-05-06 10:34 42.41304 -70.98174 864 ft 124 kts 202°
2026-05-06 10:34 42.40471 -70.98582 735 ft 128 kts 200°
2026-05-06 10:35 42.39640 -70.98983 535 ft 127 kts 201°
2026-05-06 10:35 42.38802 -70.99392 375 ft 128 kts 198°
2026-05-06 10:35 42.37956 -70.99798 179 ft 129 kts 199°
2026-05-06 10:35 42.37114 -71.00214 39 ft 127 kts 199°
2026-05-06 10:36 42.36338 -71.00586 28 ft 104 kts 200°
2026-05-06 10:36 42.35853 -71.00813 26 ft 43 kts 199°
2026-05-06 10:36 42.35789 -71.00869 27 ft 6 kts 287°
2026-05-06 10:36 42.35818 -71.00981 29 ft 15 kts 278°
2026-05-06 10:37 42.35832 -71.01118 26 ft 14 kts 277°
2026-05-06 10:37 42.35845 -71.01252 26 ft 14 kts 277°
2026-05-06 10:37 42.35858 -71.01380 26 ft 14 kts 279°
2026-05-06 10:37 42.35878 -71.01504 28 ft 13 kts 282°
2026-05-06 10:38 42.35897 -71.01625 27 ft 13 kts 282°
2026-05-06 10:38 42.35910 -71.01743 26 ft 12 kts 280°
2026-05-06 10:38 42.35934 -71.01854 28 ft 12 kts 296°
2026-05-06 10:38 42.35977 -71.01947 30 ft 11 kts 301°
2026-05-06 10:39 42.36015 -71.02036 27 ft 11 kts 302°
2026-05-06 10:39 42.36052 -71.02118 29 ft 10 kts 301°
2026-05-06 10:39 42.36087 -71.02195 28 ft 9 kts 301°
2026-05-06 10:39 42.36123 -71.02261 28 ft 8 kts 322°
2026-05-06 10:40 42.36174 -71.02276 27 ft 8 kts
2026-05-06 10:40 42.36224 -71.02257 28 ft 7 kts 21°
2026-05-06 10:40 42.36262 -71.02211 27 ft 7 kts 65°
2026-05-06 10:40 42.36278 -71.02149 26 ft 7 kts 73°
2026-05-06 10:41 42.36290 -71.02093 30 ft 5 kts 74°
2026-05-06 10:41 42.36292 -71.02082 28 ft 0 kts 74°
2026-05-06 10:41 42.36286 -71.02043 26 ft 8 kts 113°
2026-05-06 10:42 42.36273 -71.02004 30 ft 2 kts 116°
2026-05-06 10:42 42.36269 -71.01994 29 ft 0 kts 116°
2026-05-06 10:42 42.36267 -71.01988 29 ft 1 kts 116°
2026-05-06 10:42 42.36267 -71.01987 29 ft 0 kts 116°